Burlington, IA

4:57 AM CDT on September 24, 2017 (GMT -0500)
Burlington Regional

Weather History for KBRL - October, 2012

Change the Weather History Date:

Tuesday, October 23, 2012

  Actual Average Record
Temperature  
Mean Temperature 69 °F 53 °F  
Max Temperature 74 °F 63 °F 88 °F (1899)
Min Temperature 64 °F 43 °F 25 °F (1981)
Degree Days  
Heating Degree Days 0 12  
Month to date heating degree days 259 210  
Since 1 July heating degree days 385 281  
Cooling Degree Days 4 0  
Month to date cooling degree days 7 19  
Year to date cooling degree days 1279 1201  
Growing Degree Days 18 (Base 50)    
Moisture  
Dew Point 64 °F    
Average Humidity 83    
Maximum Humidity 93    
Minimum Humidity 73    
Precipitation  
Precipitation 0.03 in 0.10 in 1.59 in (1957)
Month to date precipitation 3.09 2.36  
Year to date precipitation 20.83 33.13  
Sea Level Pressure  
Sea Level Pressure 29.84 in    
Wind  
Wind Speed 9 mph (South)    
Max Wind Speed 20 mph    
Max Gust Speed 24 mph    
Visibility 10 miles    
Events Rain    
T = Trace of Precipitation, MM = Missing Value Source: NWS Daily Summary

Daily Weather History Graph

Daily Weather History Graph

Search for Another Location

Airport or City:

Trip Planner

Search our weather history database for the weather conditions in past years. The results will help you decide how hot, cold, wet, or windy it might be!

Date:

Astronomy

Oct. 23, 2012 Rise Set
Actual Time 7:25 AM CDT 6:11 PM CDT
Civil Twilight 6:57 AM CDT 6:39 PM CDT
Nautical Twilight 6:25 AM CDT 7:11 PM CDT
Astronomical Twilight 5:53 AM CDT 7:43 PM CDT
Moon 2:57 PM CDT (10/23) 1:15 AM CDT (10/23)
Length of Visible Light 11h 42m
Length of Day
10h 46m
Waxing Gibbous, 67% of the Moon is Illuminated
Oct 23
Waxing Gibbous
Oct 29
Full
Nov 6
Last Quarter
Nov 13
New
Nov 20
First Quarter

Hourly Weather History & Observations

Time (CDT) Temp. Dew Point Humidity Pressure Visibility Wind Dir Wind Speed Gust Speed Precip Events Conditions
12:53 AM 66.2 °F 64.4 °F 94% 29.84 in 9.0 mi South 4.6 mph - N/A   Clear
1:53 AM 66.9 °F 64.9 °F 93% 29.83 in 9.0 mi SSW 6.9 mph - N/A   Clear
2:53 AM 66.9 °F 64.9 °F 93% 29.83 in 8.0 mi SW 6.9 mph - N/A   Mostly Cloudy
3:53 AM 68.0 °F 64.9 °F 90% 29.83 in 8.0 mi SW 6.9 mph - N/A   Mostly Cloudy
4:53 AM 66.2 °F 64.4 °F 94% 29.85 in 8.0 mi South 6.9 mph - N/A   Mostly Cloudy
5:53 AM 66.9 °F 64.9 °F 93% 29.85 in 7.0 mi South 8.1 mph - N/A   Mostly Cloudy
6:53 AM 66.0 °F 64.0 °F 93% 29.85 in 7.0 mi SSW 9.2 mph - N/A   Scattered Clouds
7:53 AM 66.0 °F 62.1 °F 87% 29.87 in 10.0 mi SW 11.5 mph - 0.02 in Rain Light Rain
8:53 AM 64.0 °F 62.1 °F 93% 29.88 in 10.0 mi SSW 9.2 mph - 0.01 in   Partly Cloudy
9:53 AM 64.4 °F 62.6 °F 94% 29.88 in 10.0 mi South 5.8 mph - N/A   Partly Cloudy
10:40 AM 68.0 °F 64.4 °F 88% 29.88 in 10.0 mi SSW 12.7 mph - N/A   Mostly Cloudy
10:53 AM 68.0 °F 62.1 °F 81% 29.87 in 10.0 mi SSW 15.0 mph 24.2 mph N/A   Mostly Cloudy
11:53 AM 71.1 °F 64.0 °F 78% 29.86 in 10.0 mi South 12.7 mph - N/A   Mostly Cloudy
12:53 PM 73.4 °F 64.4 °F 73% 29.85 in 10.0 mi South 13.8 mph - N/A   Mostly Cloudy
1:53 PM 73.9 °F 64.0 °F 71% 29.81 in 10.0 mi South 10.4 mph - N/A   Overcast
2:08 PM 73.4 °F 64.4 °F 73% 29.82 in 10.0 mi SSW 11.5 mph - N/A   Overcast
2:53 PM 73.0 °F 64.0 °F 73% 29.80 in 10.0 mi SSW 16.1 mph - N/A   Overcast
3:53 PM 73.0 °F 64.0 °F 73% 29.79 in 10.0 mi South 10.4 mph - N/A   Overcast
4:31 PM 73.4 °F 64.4 °F 73% 29.80 in 10.0 mi South 9.2 mph - N/A   Overcast
4:53 PM 73.9 °F 64.0 °F 71% 29.78 in 10.0 mi South 11.5 mph - N/A   Overcast
5:53 PM 72.0 °F 64.0 °F 76% 29.79 in 10.0 mi South 10.4 mph - N/A   Overcast
6:53 PM 71.1 °F 63.0 °F 75% 29.81 in 10.0 mi South 8.1 mph - N/A   Overcast
7:53 PM 70.0 °F 64.0 °F 81% 29.82 in 10.0 mi SSE 4.6 mph - N/A   Overcast
8:53 PM 69.1 °F 63.0 °F 81% 29.83 in 10.0 mi SE 4.6 mph - N/A   Overcast
9:53 PM 68.0 °F 63.0 °F 84% 29.85 in 10.0 mi SE 5.8 mph - N/A   Scattered Clouds
10:53 PM 64.9 °F 62.1 °F 90% 29.85 in 10.0 mi South 3.5 mph - N/A   Clear
11:53 PM 64.9 °F 63.0 °F 93% 29.84 in 10.0 mi South 8.1 mph - N/A   Mostly Cloudy